Location: Launay
(47.2429°N, 1.5727°E)
Time: 18:44:02
(UTC+00:00)

Daily predictions for brighter satellites

Satellite Brightness Start Highest point End
(mag) Time Altitude Azimuth Time Altitude Azimuth Time Altitude Azimuth
Cosmos 2184 Rocket 4.1 19:55:22 10° N 20:01:37 68° ENE 20:07:53 10° SSE
Meteor PRIRODA 3.0 20:02:54 10° SSE 20:05:50 77° ENE 20:08:48 10° N
Iridium 4 Rocket 3.9 20:01:24 10° N 20:06:21 48° E 20:11:40 10° SSE
Okean-O 3.0 20:04:29 10° SE 20:08:41 48° ENE 20:12:56 10° N
ERS-1 Rocket 3.2 20:05:52 10° SSE 20:10:45 55° ENE 20:15:38 10° N
MOS 1 4.4 20:11:55 10° SSE 20:17:37 86° ENE 20:23:22 10° NNW
Cosmos 1743 2.8 20:14:39 10° N 20:17:58 44° ENE 20:21:15 10° SSE
ISS -2.4 20:15:21 10° WNW 20:18:32 38° N 20:21:43 10° ENE
Lacrosse 4 Rocket 3.7 20:16:50 10° WSW 20:20:19 29° NW 20:23:50 10° NNE
CZ-4B R/B 3.3 20:17:12 10° S 20:21:14 63° WSW 20:25:10 10° NNW
ARIANE 6 FM1 Upper Stage 2.7 20:18:23 10° SSW 20:22:16 52° SE 20:26:12 10° NE
NOSS 3-1 (C) 3.8 20:18:35 10° S 20:22:33 28° ESE 20:27:05 10° ENE
Spot 2 Rocket 4.1 20:17:52 10° SE 20:22:36 43° ENE 20:27:20 10° N
Cosmos 1782 3.2 20:21:33 10° SSW 20:25:10 59° WNW 20:28:49 10° N
Cosmos 1726 Rocket 3.8 20:23:07 10° SSW 20:27:31 76° W 20:31:56 10° N
MetOp-B 4.2 20:23:10 10° SSE 20:28:32 83° WSW 20:33:56 10° NNW
Cosmos 1833 Rocket 3.0 20:23:30 10° S 20:28:48 43° ESE 20:34:07 10° NE
CZ-4 R/B 3.7 20:25:48 10° SW 20:28:53 21° W 20:31:58 10° NW
IRS-1A Rocket 4.4 20:23:59 10° SSE 20:29:49 71° ENE 20:35:37 10° N
Cosmos 1733 3.9 20:31:32 10° NNE 20:34:13 27° ENE 20:36:07 15° SE
Cosmos 1076 Rocket 3.6 20:30:56 10° N 20:35:17 82° W 20:39:36 10° S
Cosmos 158 Rocket 4.1 20:32:33 10° S 20:37:44 59° ESE 20:43:01 10° NNE
USA 186 4.3 20:36:07 10° SW 20:37:48 15° W 20:39:28 10° NW
USA 245 4.0 20:35:19 13° SE 20:38:54 54° ENE 20:43:53 10° N
Cosmos 2058 Rocket 3.0 20:38:31 10° S 20:42:59 80° E 20:47:28 10° NNE
Helios 1A 3.1 20:44:41 10° N 20:48:43 72° WNW 20:52:43 10° SSW
PSLV R/B 4.1 20:49:41 19° SE 20:51:32 37° ENE 20:54:35 10° N
Cosmos 2360 4.4 20:45:53 10° NNW 20:51:36 73° WSW 20:56:36 14° SSE
NOSS 3-1 (A) 4.2 20:50:27 16° SE 20:52:21 20° ESE 20:56:11 10° ENE
Cosmos 1980 Rocket 3.2 20:48:02 10° NNW 20:53:10 35° NE 20:57:27 14° ESE
Helios 1B rocket 4.2 20:50:25 10° SSW 20:53:25 24° W 20:56:28 10° NW
ATLAS CENTAUR R/B 1.1 20:50:30 10° SW 20:54:10 87° NW 20:58:00 10° NE
Terra 2.0 20:50:05 10° S 20:54:45 71° WSW 20:59:27 10° NNW
Cosmos 1315 Rocket 4.1 20:55:12 18° ESE 20:56:43 23° E 20:59:48 10° NE
USA 234 3.2 20:51:44 10° NE 20:58:17 74° SE 21:04:49 10° SW
Meteor 1-26 Rocket 4.4 20:53:55 10° S 20:59:38 60° E 21:05:32 10° NNE
SAR-Lupe-2 3.6 20:57:49 16° S 21:00:34 77° WSW 21:04:09 10° NNW
SL-16 R/B 4.4 21:00:21 10° N 21:03:31 15° NE 21:06:40 10° ENE
Meteor 2-2 Rocket 4.3 20:58:31 10° S 21:04:24 76° E 21:10:25 10° NNE
BlueWalker 3 1.8 21:04:18 10° WNW 21:07:57 77° NNE 21:10:12 22° ESE
Cosmos 1125 Rocket 3.5 21:04:53 10° NNW 21:10:13 84° WSW 21:14:02 19° SSE
Cosmos 1400 Rocket 4.2 21:07:08 10° SW 21:10:32 35° WNW 21:13:57 10° N
Cosmos 1346 Rocket 2.9 21:08:15 10° NNW 21:11:56 62° W 21:14:32 18° S
Cosmos 2366 rocket 4.1 21:10:12 10° N 21:16:35 71° E 21:21:08 20° SSE
SL-24 DEB 4.4 21:14:17 23° SSE 21:16:53 52° E 21:21:18 10° N
IRS-1C Rocket 4.2 21:15:27 17° S 21:19:33 76° WSW 21:24:51 10° NNW
Ariane Rocket 3.0 21:16:59 21° SSE 21:20:28 84° ENE 21:25:34 10° NNW
Cosmos 44 3.2 21:17:57 10° NW 21:22:31 76° SW 21:25:13 25° SSE
Cosmos 1238 Rocket 3.0 21:22:12 30° SE 21:23:25 41° E 21:26:36 10° NNE
Cosmos 2298 Rocket 4.3 21:19:36 10° NNW 21:24:53 58° ENE 21:27:57 24° SE
CZ-4C R/B 4.1 21:18:22 10° NW 21:25:01 36° WSW 21:32:15 12° S
SL-8 Rocket 3.9 21:18:59 10° N 21:25:11 89° E 21:29:41 20° S
Lacrosse 5 rocket 1.2 21:21:56 10° WNW 21:25:23 53° SW 21:26:34 34° SSE
Cosmos 1697 Rocket 2.8 21:19:55 10° NNW 21:25:35 73° WSW 21:29:17 22° SSE
Cosmos 1570 Rocket 3.9 21:20:40 10° SSW 21:25:54 85° ESE 21:31:13 10° NNE
Cosmos 864 Rocket 4.5 21:22:04 10° N 21:28:23 84° E 21:32:49 21° S
ATLAS 3B R/B 4.1 21:30:07 19° ESE 21:31:47 20° ESE 21:37:03 10° ENE
Cosmos-2242 4.0 21:28:18 10° SSW 21:32:23 46° WNW 21:36:31 10° N
Cosmos 836 Rocket 4.4 21:27:44 12° SSW 21:32:36 76° ESE 21:37:48 10° NNE
Meteor 2-6 Rocket 4.4 21:30:20 21° S 21:34:13 61° E 21:39:52 10° NNE
Cosmos 1536 3.3 21:32:47 10° N 21:36:25 41° ENE 21:37:32 32° ESE
Cosmos 2369 4.3 21:32:44 10° NNW 21:38:14 47° NE 21:41:29 23° ESE
Cosmos 1867 3.7 21:33:01 10° NW 21:38:27 68° WSW 21:41:23 27° SSE
Cosmos 2221 2.5 21:37:30 32° SSE 21:39:15 60° E 21:43:22 10° NNE
SeaSat 1 2.6 21:36:40 27° SE 21:39:19 65° ENE 21:44:12 10° NNW
Okean O Rocket 4.1 21:37:03 10° SW 21:39:43 16° W 21:42:23 10° NW
Cosmos 405 Rocket 4.4 21:38:45 10° NNE 21:41:03 17° ENE 21:41:40 16° E
Cosmos 2150 Rocket 4.1 21:35:46 10° NNW 21:41:12 80° ENE 21:44:04 29° SSE
Okean 1 3.0 21:42:38 39° SSE 21:43:48 67° E 21:47:27 10° NNE
Cosmos 2082 Rocket 2.6 21:42:05 27° SSE 21:44:32 42° ESE 21:49:48 10° NE
Cosmos 2341 Rocket 4.3 21:40:36 10° NNW 21:46:47 64° W 21:51:17 19° S
SPOT 3 Rocket 4.0 21:43:34 21° S 21:46:55 55° W 21:51:59 10° NNW
Cosmos 1674 3.9 21:48:35 15° NE 21:48:35 15° NE 21:49:12 10° NNE
Cosmos 192 4.3 21:48:49 10° NNW 21:53:46 79° WSW 21:55:58 33° SSE
Cosmos 773 Rocket 3.9 21:51:31 19° SSW 21:55:14 85° ESE 22:00:23 10° NNE
ISS -3.9 21:52:12 10° WNW 21:55:34 88° NNE 21:56:12 56° ESE
Cosmos 220 Rocket 3.7 21:57:20 36° S 21:58:57 78° ESE 22:03:01 10° NNE
Cosmos 2084 Rocket 3.7 21:54:45 10° SW 21:59:00 67° NW 22:03:14 10° NE
COBE Rocket 4.3 21:54:04 10° NNE 21:59:04 51° E 22:00:56 34° SSE
COSMOS 2406 3.8 21:59:10 31° SE 22:00:41 36° ESE 22:05:52 10° NE
Cosmos 1766 Rocket 3.8 21:56:34 10° N 22:00:55 57° ENE 22:02:12 40° SE
USA 59 Rocket 1.4 22:10:24 16° ENE 22:10:24 16° ENE 22:11:14 10° ENE
Cosmos 2333 Rocket 3.9 22:07:04 10° N 22:11:44 25° NE 22:15:54 12° E
Cosmos 1833 Rocket 4.2 22:07:39 10° WSW 22:12:48 35° NW 22:17:59 10° NNE
NOSS 3-1 (C) 3.9 22:08:05 10° WSW 22:12:49 50° NW 22:18:36 10° NE
DELTA 2 R/B (1) 4.0 22:14:08 10° WSW 22:19:10 37° S 22:19:10 37° S
ALOS 2 4.1 22:19:44 22° E 22:21:08 25° ENE 22:24:44 10° N
PKM 4.3 22:18:33 10° WSW 22:21:16 51° NNW 22:25:07 10° NE
Meteor 2-9 Rocket 4.2 22:16:04 10° N 22:21:45 86° E 22:24:06 38° SSE
Cosmos 1821 Rocket 4.2 22:15:55 10° NNW 22:21:56 63° W 22:25:07 29° SSW
Cosmos 1805 3.4 22:20:37 10° NNW 22:23:59 49° W 22:24:24 46° WSW
Cosmos 2219 Rocket 4.4 22:23:36 10° N 22:27:18 17° NE 22:30:59 10° E
Meteor 1-19 Rocket 4.3 22:25:46 35° S 22:28:30 79° E 22:34:32 10° NNE
ATLAS CENTAUR R/B 4.3 22:28:31 10° WNW 22:30:53 16° NNW 22:33:18 10° N
Meteor 2-4 Rocket 4.5 22:30:52 32° ESE 22:32:20 37° E 22:37:36 10° NNE
Cosmos 1315 Rocket 4.4 22:30:06 17° WSW 22:32:22 29° WNW 22:35:49 10° N
Meteor 1-27 Rocket 3.8 22:30:54 41° SSE 22:32:45 62° E 22:38:13 10° NNE
NOSS 2-1 (D) 3.9 22:36:15 33° ENE 22:36:15 33° ENE 22:38:06 10° NE
Cosmos 1980 Rocket 2.9 22:31:58 10° NW 22:37:14 43° WSW 22:39:12 31° SSW
Sich 1 3.8 22:33:48 10° N 22:37:45 37° ENE 22:38:23 35° E
Genesis I 4.0 22:38:16 10° NNW 22:40:24 29° NNE 22:40:24 29° NNE
USA 234 4.1 22:34:52 10° NE 22:41:09 51° NNW 22:47:25 10° W
NOSS 3-1 (A) 3.4 22:37:43 11° SW 22:42:18 65° NW 22:48:10 10° NE
Meteor 2-15 4.4 22:38:53 10° N 22:45:00 73° E 22:47:14 41° SSE
BlueWalker 3 3.9 22:42:34 10° W 22:44:08 18° WSW 22:44:08 18° WSW
SL-16 R/B 2.5 22:43:13 10° NNW 22:48:50 61° ENE 22:51:05 36° ESE
Cosmos 1975 2.5 22:46:31 10° N 22:50:13 80° E 22:50:13 80° E
Cosmos 1707 3.7 22:51:13 30° ENE 22:51:13 30° ENE 22:53:34 10° NNE
Meteor 1-11 Rocket 3.9 22:46:04 10° NNW 22:51:30 60° W 22:53:25 38° SSW
Cosmos 1538 Rocket 4.1 22:50:42 48° SE 22:51:33 54° ESE 22:56:35 10° NNE
Cosmos 1500 Rocket 4.1 22:48:42 10° N 22:52:55 45° ENE 22:53:33 42° ESE
CZ-4C R/B 3.7 22:49:58 10° N 22:53:29 47° WNW 22:54:01 43° W
NOSS 2-1 (C) 3.4 22:55:39 52° NNE 22:55:39 52° NNE 22:58:01 10° NE
Cosmos 2322 Rocket 3.0 22:52:18 10° NNW 22:57:44 45° NE 23:00:24 27° ESE
Spot 4 3.8 22:56:44 53° SE 22:57:46 74° ENE 23:02:33 10° N
Cosmos 2237 4.1 22:52:40 10° NNW 22:58:23 83° WSW 23:00:06 47° SSE
ARIANE 5 R/B 2.5 23:01:14 61° SSW 23:01:50 71° WSW 23:06:12 10° NNW
Cosmos 1408 Rocket 3.5 22:57:31 10° N 23:01:52 67° E 23:02:20 61° ESE
Meteor 2-15 Rocket 4.5 22:55:47 10° N 23:01:55 73° E 23:04:01 43° SSE
Cosmos 1842 Rocket 3.7 23:02:48 51° SW 23:03:37 63° W 23:07:55 10° N
Cosmos 1766 3.2 23:02:12 10° NNW 23:05:17 61° WNW 23:05:17 61° WNW
Cosmos 1908 3.3 23:03:45 10° N 23:06:26 56° N 23:06:26 56° N
Cosmos 1470 3.0 23:04:04 10° N 23:07:19 53° ENE 23:07:19 53° ENE
Cosmos 1805 Rocket 3.7 23:04:38 10° N 23:09:03 63° E 23:09:35 57° ESE
Cosmos 2278 3.6 23:09:21 10° NNW 23:15:03 88° WSW 23:16:39 49° SSE
Cosmos 405 Rocket 3.8 23:12:14 10° NNW 23:14:58 30° W 23:14:58 30° W
GP-B 3.9 23:12:02 10° NNE 23:16:08 37° E 23:16:31 36° E
Exosat Rocket 3.5 23:11:56 10° NNW 23:17:00 73° ENE 23:18:24 47° SE
SeaSat 1 4.1 23:16:18 20° WSW 23:17:05 20° WSW 23:20:41 10° WNW
Cosmos 2360 Rocket 2.7 23:11:53 10° NNW 23:17:23 52° ENE 23:19:46 31° ESE
Cosmos 1934 Rocket 4.2 23:11:36 10° NNW 23:17:45 61° W 23:20:02 38° SSW
CZ-2C R/B 4.2 23:16:21 10° N 23:20:37 50° WNW 23:21:45 39° WSW
Cosmos 1535 Rocket 4.4 23:14:49 10° N 23:21:11 84° W 23:23:17 45° S
ATLAS 3B R/B 2.9 23:17:16 30° SSW 23:21:25 83° SE 23:29:17 10° NE
KORONAS-FOTON 3.9 23:22:30 62° NW 23:22:30 62° NW 23:25:39 10° N
USA 229 DEB 3.5 23:20:45 46° S 23:22:22 61° ESE 23:28:54 10° NE
USA 229 3.5 23:20:54 46° S 23:22:28 60° ESE 23:28:59 10° NE
Meteor 2-8 Rocket 4.4 23:16:35 10° N 23:22:48 81° E 23:24:49 45° SSE
CENTAUR R/B 3.6 23:15:08 10° NW 23:23:11 64° NE 23:31:24 14° ESE
Spot 1 4.0 23:20:53 10° NNE 23:25:12 73° ESE 23:25:34 68° SE
ASTEX 1 4.0 23:20:34 10° NNE 23:25:18 43° E 23:26:06 40° ESE
Cosmos 1743 Rocket 3.5 23:22:51 10° N 23:27:19 72° E 23:27:46 66° SE
Cosmos 2082 Rocket 3.5 23:23:49 11° WSW 23:28:41 36° NW 23:33:51 10° NNE
Cosmos 1605 Rocket 4.0 23:26:55 10° NNW 23:33:15 77° W 23:35:18 45° S
Landsat 5 4.2 23:31:17 10° N 23:35:17 46° WNW 23:36:07 40° WSW
Cosmos 1842 3.5 23:36:29 54° NW 23:36:29 54° NW 23:39:32 10° N
Cosmos 1420 Rocket 4.1 23:36:40 10° NNW 23:42:00 73° ENE 23:43:26 48° SE
COSMOS 2406 4.2 23:41:09 18° WSW 23:44:54 41° NW 23:50:19 10° NNE
Cosmos 1455 4.0 23:45:36 10° NNE 23:47:02 17° NE 23:47:02 17° NE
Cosmos 1300 3.2 23:48:06 10° N 23:50:26 45° N 23:50:26 45° N
USA 59 Rocket 1.6 23:56:15 16° WNW 23:57:27 20° NW 23:59:44 10° NNE
